Location: New Frontier Mobile Home Park
(32.8448°N, 116.9675°W)
Time: 20:22:53
(UTC+00:00)

Cosmos 2341 Rocket - Pass Details

Date: 14 July 2020
Orbit: 969 x 1004 km, 82.9° (Epoch: 13 August)

Event Time Altitude Azimuth Distance (km) Brightness Sun altitude
Exits shadow 06:27:54 51° 266° (W) 1,205 4.5 -31.8°
Maximum altitude 06:28:16 52° 279° (W) 1,196 4.5 -31.9°
Drops below altitude 10° 06:34:18 10° 355° (N) 2,715 7.1 -32.3°
Sets 06:36:54 0° 0° (N) 3,665 7.9 -32.5°
